Volver al catálogo

OPS 4682 DEB

ActivoPO
NORAD 19954·DEBRIS·🇺🇸 United States

Lanzado Apr 3, 1965 desde Vandenberg Space Force Base

Loading…

Próximos Pases (próximas 24 horas)

TLE

ActualizadoSource: Space-Track

Época: Sep 11, 2026, 18:23 UTC

1 19954U 65027AZ  26254.76610381  .00000190  00000-0  56462-3 0  9995
2 19954  90.3765  82.0795 0029565 274.7419 100.0438 13.05261894786840

Sigue OPS 4682 DEB en tiempo real con AllMySat

Download on the App Store